This is the latest recevied weather packets stored in our database for station/object K7FLA. If no packets are shown the sender has not sent any weather packets the latest 10 day(s).
| Time | Temp. | Humidity | Pressure | Rain* | Wind** | Luminosity | Snow |
|---|---|---|---|---|---|---|---|
| 1788556046 | 30.56° C | 26% | 1094.7 hPa | 0 mm | - | 687 W/m² | - |
| 1788555741 | 30.56° C | 27% | 1094.6 hPa | 0 mm | - | 693 W/m² | - |
| 1788555438 | 30° C | 25% | 1094.7 hPa | 0 mm | - | 699 W/m² | - |
| 1788555134 | 30° C | 24% | 1094.8 hPa | 0 mm | - | 713 W/m² | - |
| 1788554843 | 30° C | 26% | 1094.7 hPa | 0 mm | - | 715 W/m² | - |
| 1788554520 | 30° C | 25% | 1094.9 hPa | 0 mm | - | 719 W/m² | - |
| 1788554216 | 29.44° C | 25% | 1094.8 hPa | 0 mm | - | 735 W/m² | - |
| 1788553912 | 29.44° C | 26% | 1094.7 hPa | 0 mm | - | 742 W/m² | - |
| 1788553608 | 30° C | 24% | 1095 hPa | 0 mm | - | 752 W/m² | - |
| 1788553304 | 30° C | 26% | 1094.8 hPa | 0 mm | - | 757 W/m² | - |
| 1788553004 | 30.56° C | 27% | 1094.7 hPa | 0 mm | - | 760 W/m² | - |
| 1788552699 | 30.56° C | 26% | 1094.9 hPa | 0 mm | - | 764 W/m² | - |
| 1788552398 | 30.56° C | 27% | 1095 hPa | 0 mm | - | 769 W/m² | - |
| 1788552093 | 30° C | 28% | 1095 hPa | 0 mm | - | 774 W/m² | - |
| 1788551792 | 30° C | 27% | 1095 hPa | 0 mm | - | 777 W/m² | - |
| 1788551486 | 30° C | 27% | 1095.1 hPa | 0 mm | - | 779 W/m² | - |
| 1788551185 | 30° C | 30% | 1095.1 hPa | 0 mm | - | 779 W/m² | - |
| 1788550880 | 30° C | 28% | 1095.1 hPa | 0 mm | - | 781 W/m² | - |
| 1788550575 | 30° C | 30% | 1095 hPa | 0 mm | - | 780 W/m² | - |
| 1788550272 | 30° C | 31% | 1095.1 hPa | 0 mm | - | 783 W/m² | - |
| 1788549971 | 30° C | 33% | 1095.2 hPa | 0 mm | - | 781 W/m² | - |
| 1788549667 | 30° C | 34% | 1095.3 hPa | 0 mm | - | 776 W/m² | - |
| 1788549363 | 29.44° C | 35% | 1095.4 hPa | 0 mm | - | 779 W/m² | - |
| 1788549060 | 28.89° C | 38% | 1095.6 hPa | 0 mm | - | 777 W/m² | - |
| 1788548755 | 28.89° C | 36% | 1095.6 hPa | 0 mm | - | 780 W/m² | - |
* Rain latest hour (hover to see other rain measurements)
** Current wind speed in m/s (hover to see current wind gust speed)